Tracking 19574 objects as of 15-Feb-2019
HD Live streaming from Space Station
objects crossing your sky now

CUBEBUG 2

Track CUBEBUG 2 now!
10-day predictions
CUBEBUG 2 is classified as:


NORAD ID: 39440
Int'l Code: 2013-066AA
Perigee: 592.5 km
Apogee: 707.1 km
Inclination: 97.6 °
Period: 97.6 minutes
Semi major axis: 7020 km
RCS: Unknown
Launch date: November 21, 2013
Source: Argentina (ARGN)
Launch site: Orenburg, Russia (OREN)

Uplink (MHz):
Downlink (MHz): 437.445
Beacon (MHz):
Mode: 1k2AFSK 9k6FSK
Call sign: CUBEB2-6
Status: Active

aabbcc
Your satellite tracking list
Your tracking list is empty




NASA's NSSDC Master Catalog

Two Line Element Set (TLE):
1 39440U 13066AA  19046.55815566  .00000187  00000-0  32845-4 0  9999
2 39440  97.6001  52.2858 0081588 124.4339 236.4617 14.75792567281813
Source of the keplerian elements: Caltech